STARLINK-35996

Last updated on Mon Dec 15 2025 00:02:11 GMT+0000 (Coordinated Universal Time)

1 66800U 25278K 25348.25003472 -.01279634 00000+0 -65949-2 0 9997 2 66800 42.9970 242.7804 0001856 273.5207 122.8347 15.82931925 2998
UTC large
Height (km)
Speed (km/s)
/
Latitude / Longitude
Inclination (degrees)
Orbital Period (minutes)
Azimuth
Elevation
Range (km)
Doppler Factor

Next 0 passes for location: London (51.5072 / 0.1276)

Sorry there are no passes over London.